Starlink 31812

operational
NORAD ID: 59800 Int'l Des: 2024-093 Owner: SPXS Country: US Constellation: starlink
LEOCIRCULAR

Über Starlink 31812

Beschreibung wird geladen...

Live-Position

3D-Globus wird geladen...

Nächste Überflüge

Höhenverlauf

Altitude vs Time

uPlot chart will show altitude changes over time

Zweizeiliger Elementsatz

1 59800U 24093U 25259.88769959 -.00000323 00000-0 -22298-5 0 9992
2 59800 43.0071 110.5268 0000538 261.6207 98.4583 15.27564481 76184
Epoch: 16. Sept. 2025 • Age: 37 hours

Aktueller Status

Höhe 485.2 km
Geschwindigkeit 7.63 km/s
Subsatellitenpunkt 36.47°N, 83.53°E
Startdatum 18. Mai 2024
Alter 1.3 years
Typ internet

Technische Details

Klassifizierung Payload
Masse 730.00 kg
Trockenmasse 700.00 kg
Gesamtmasse 730.00 kg
Länge 0.30 m
Durchmesser 4.10 m
Spannweite 29.00 m
Form Box + pan
Hersteller SPXS
Bus-Typ Starlink V2M
Phasenstatus In Orbit
Besitzer/Staat SPXS/US

Große Konstellationen

Loading constellations...